Terminal Aerodrome Forecast
Issued by NWS

Home | Current Version | Previous Version | Text Only | Print | Product List | Glossary On
Versions: 1 2 3 4 5 6 7 8 9 10 11 12 13 14 15 16 17 18 19 20 21 22 23 24
000
FTUS45 KPSR 261741
TAFPHX
TAF
KPHX 261741Z 2618/2718 26006KT P6SM VCSH BKN090 OVC150
      TEMPO 2618/2620 VRB03KT
     FM270000 27006KT P6SM SCT080
     FM270600 11008KT P6SM FEW070 SCT250
     FM271400 13010KT P6SM SCT070 OVC200=

USA.gov is the U.S. government's official web portal to all federal, state and local government web resources and services.